{"data":{"norad_id":64889,"intl_designator":"2025-155P","name":"2025-155P","alt_names":[],"object_type":"PAYLOAD","status":"ACTIVE","operator":null,"country":"TBD","launch_date":"2025-07-25","launch_site_code":"VOSTO","launch_vehicle":null,"mission":null,"orbit_class":"UNKNOWN","rcs_meters":null,"size_class":null,"mass_kg":null,"dimensions":null,"purposes":[],"wikipedia_slug":null,"has_3d_model":false,"image_url":null,"decayed_at":null,"tle_current":{"epoch":"2026-09-21T22:21:24.601536Z","epoch_age_seconds":47562,"freshness":"FRESH","line1":"1 64889U 25155P   26264.93153474  .00003370  00000+0  12882-3 0  9995","line2":"2 64889  97.4713 232.7754 0006860 180.8442 179.2786 15.27290474 95471","mean_motion":15.27290474,"eccentricity":0.000686,"inclination_deg":97.4713,"raan_deg":232.7754,"arg_perigee_deg":180.8442,"mean_anomaly_deg":179.2786,"bstar":0.00012882,"rev_number":9547,"period_min":94.284618709669,"perigee_km":479.20880951158,"apogee_km":488.62354647178,"semimajor_km":6862.0531779917,"source":"CELESTRAK","updated_at":"2026-09-22T09:00:30.017239Z"}}}